This is the latest recevied weather packets stored in our database for station/object KO4APQ. If no packets are shown the sender has not sent any weather packets the latest 10 day(s).
| Time | Temp. | Humidity | Pressure | Rain* | Wind** | Luminosity | Snow |
|---|---|---|---|---|---|---|---|
| 1777833177 | 19.44° C | 35% | 1019.2 hPa | 0 mm | - | 946 W/m² | - |
| 1777832875 | 19.44° C | 35% | 1019.1 hPa | 0 mm | - | 951 W/m² | - |
| 1777832574 | 20° C | 35% | 1019.1 hPa | 0 mm | - | 958 W/m² | - |
| 1777832270 | 20° C | 34% | 1019.4 hPa | 0 mm | - | 968 W/m² | - |
| 1777831967 | 19.44° C | 38% | 1019.5 hPa | 0 mm | - | 967 W/m² | - |
| 1777831663 | 19.44° C | 36% | 1019.1 hPa | 0 mm | - | 972 W/m² | - |
| 1777831362 | 19.44° C | 38% | 1019.4 hPa | 0 mm | - | 974 W/m² | - |
| 1777831058 | 19.44° C | 33% | 1019.3 hPa | 0 mm | - | 981 W/m² | - |
| 1777830756 | 18.89° C | 34% | 1019.6 hPa | 0 mm | - | 980 W/m² | - |
| 1777830452 | 18.33° C | 36% | 1019.5 hPa | 0 mm | - | 984 W/m² | - |
| 1777830150 | 18.89° C | 37% | 1019.6 hPa | 0 mm | - | 988 W/m² | - |
| 1777829850 | 18.89° C | 35% | 1019.6 hPa | 0 mm | - | 988 W/m² | - |
| 1777829546 | 18.89° C | 38% | 1019.6 hPa | 0 mm | - | 988 W/m² | - |
| 1777829244 | 18.33° C | 37% | 1019.7 hPa | 0 mm | - | 986 W/m² | - |
| 1777828941 | 18.89° C | 36% | 1019.7 hPa | 0 mm | - | 989 W/m² | - |
| 1777828637 | 18.33° C | 38% | 1019.8 hPa | 0 mm | - | 986 W/m² | - |
| 1777828334 | 18.33° C | 35% | 1019.8 hPa | 0 mm | - | 986 W/m² | - |
| 1777828031 | 18.33° C | 37% | 1019.9 hPa | 0 mm | - | 979 W/m² | - |
| 1777827728 | 18.33° C | 39% | 1020 hPa | 0 mm | - | 982 W/m² | - |
| 1777827425 | 18.33° C | 34% | 1020.2 hPa | 0 mm | - | 977 W/m² | - |
| 1777827122 | 17.78° C | 42% | 1020.4 hPa | 0 mm | - | 975 W/m² | - |
| 1777826818 | 17.22° C | 38% | 1020.5 hPa | 0 mm | - | 973 W/m² | - |
| 1777826515 | 17.22° C | 39% | 1020.6 hPa | 0 mm | - | 968 W/m² | - |
| 1777826212 | 17.22° C | 40% | 1020.7 hPa | 0 mm | - | 965 W/m² | - |
| 1777825909 | 17.22° C | 38% | 1020.5 hPa | 0 mm | - | 960 W/m² | - |
* Rain latest hour (hover to see other rain measurements)
** Current wind speed in m/s (hover to see current wind gust speed)